Retour au catalogue

COSMOS 1275 DEB

ActifPO
NORAD 12710·DEBRIS·🇷🇺 Russia

Lancé Jun 4, 1981 depuis Plesetsk Cosmodrome

Loading…

Prochains Passages (prochaines 24 heures)

TLE

FraisSource: Space-Track

Époque: Sep 14, 2026, 13:27 UTC

1 12710U 81053BE  26257.56102341  .00000889  00000-0  88727-3 0  9992
2 12710  83.0084 196.5139 0115067  97.2830 264.1422 13.73991912242081

Suivez COSMOS 1275 DEB en temps réel avec AllMySat

Download on the App Store